Regional Weather Roundup
Issued by NWS State College, PA

Home | Current Version | Previous Version | Text Only | Print | Product List | Glossary On
Versions: 1 2 3 4 5 6 7 8 9 10 11 12 13 14 15 16 17 18 19 20 21 22 23 24 25 26 27 28 29 30 31 32 33 34 35 36 37 38 39 40 41 42 43 44 45 46 47 48 49 50
000
ASUS41 KCTP 031003
RWRCTP

REGIONAL WEATHER ROUNDUP
NATIONAL WEATHER SERVICE STATE COLLEGE PA
600 AM EDT WED JUN 03 2015

Note: "fair" indicates few or no clouds below 12,000 feet with no
significant weather and/or obstructions to visibility.

* = STATION THAT DOES NOT REPORT PRECIPITATION /E.G. RAIN...SNOW...ETC/
    THUNDER OR FOG.

PAZ002>004-007>009-013>016-020>023-029>032-031100-
WESTERN PENNSYLVANIA

CITY           SKY/WX    TMP DP  RH WIND       PRES   REMARKS
ERIE           CLEAR     53  46  77 NE3       30.17R
MEADVILLE      CLEAR     49  45  86 E3        30.16S
FRANKLIN*      CLOUDY    45  41  87 E3        30.18S VSB<1/4
NEW CASTLE     FAIR      49  49 100 CALM      30.15S
BEAVER COUNTY  NOT AVBL
BUTLER*        CLOUDY    50  48  93 NE8       30.16R
PITTSBURGH INT MOCLDY    54  52  93 NE8       30.12R
PITTSBURGH     MOCLDY    55  49  80 NE6       30.11S
INDIANA*       CLEAR     50  48  93 E5        30.18R
LATROBE        CLOUDY    55  54  94 CALM      30.13S
WASHINGTON CO* CLOUDY    55  52  88 E5        30.12S
$$

PAZ004>006-010>012-017>019-024>028-033>037-041-042-045-046-049>053-031100-
CENTRAL PENNSYLVANIA

CITY           SKY/WX    TMP DP  RH WIND       PRES   REMARKS
BRADFORD       FOG       42  40  92 CALM      30.19R VSB 1/4
DUBOIS         PTCLDY    46  43  89 E5        30.17R
CLEARFIELD     FOG       45  44  97 NE5       30.18S VSB<1/4
JOHNSTOWN      CLOUDY    51  49  92 E6        30.14S
ALTOONA        CLOUDY    55  50  83 NE5       30.16R
STATE COLLEGE  FOG       48  48 100 CALM      30.18R VSB 1/4
WILLIAMSPORT   FOG       49  47  93 NW3       30.20R VSB<1/4
SELINSGROVE    MOCLDY    52  50  93 N6        30.20R
FT INDIANTOWN  CLOUDY    55  54  94 VRB2      30.18R
CAPITAL CITY   LGT RAIN  57  54  89 E7        30.18R FOG
HARRISBURG     CLOUDY    57  54  89 CALM      30.17R
YORK           CLOUDY    56  54  93 NE5       30.16S
$$

PAZ038>040-043-044-047-048-054-055-060>062-067>071-031100-
EASTERN PENNSYLVANIA

CITY           SKY/WX    TMP DP  RH WIND       PRES   REMARKS
SCRANTON       CLOUDY    52  49  89 CALM      30.20R
MOUNT POCONO   CLOUDY    50  47  89 NE5       29.97F
ALLENTOWN      CLOUDY    55  53  93 E3        30.20R
QUAKERTOWN*    CLOUDY    54  54 100 E3        30.20R
READING        CLOUDY    54  53  97 NE3       30.17R
LANCASTER      CLOUDY    55  53  93 NE6       30.17R
COATESVILLE    CLOUDY    52  52 100 E10       30.18R FOG
POTTSTOWN      CLOUDY    53  53 100 E5        30.20R
BLUE BELL      CLOUDY    54  54 100 CALM      30.18R
DOYLESTOWN     CLOUDY    51  51 100 NE3       30.19R
WILLOW GROVE   NOT AVBL
NORTH PHILA    CLOUDY    55  50  83 NE9       30.20R
PHILADELPHIA   CLOUDY    55  51  86 NE9       30.17S
$$



USA.gov is the U.S. government's official web portal to all federal, state and local government web resources and services.